This demonstration page uses our WeatherBlox Daily Observations layout. Learn more.

Left ArrowRight Arrow

39.01783, -85.05884

Hourly Observations for June 24, 2015

Temp ( °F °C ) Dew Point ( °F °C ) Humidity (%) Winds ( mph kmh ) Pressure ( in mb ) Visibility ( mi km ) Precip ( " mm )
12:52 am 00:52 Mostly Clear 70 21.1 58 14.4 66 66 N 7 11 30.07 1018 10 16 N/A
1:52 am 01:52 Clear 68 20 58 14.4 70 70 N 6 9 30.08 1019 10 16 N/A
2:52 am 02:52 Partly Cloudy 67 19.4 59 15 76 76 N 7 11 30.08 1019 10 16 N/A
3:52 am 03:52 Partly Cloudy 66 18.9 58 14.4 75 75 NNW 5 7 30.09 1019 10 16 N/A
4:52 am 04:52 Mostly Cloudy 66 18.9 59 15 78 78 N 5 7 30.10 1019 10 16 N/A
5:52 am 05:52 Partly Cloudy 67 19.4 58 14.4 73 73 N 6 9 30.12 1020 10 16 N/A
6:52 am 06:52 Mostly Cloudy 65 18.3 58 14.4 78 78 NNW 3 6 30.12 1020 10 16 N/A
7:52 am 07:52 Mostly Cloudy 66 18.9 59 15 78 78 N N/A 30.13 1020 10 16 N/A
8:52 am 08:52 Mostly Cloudy 69 20.6 60 15.6 73 73 N N/A 30.14 1021 10 16 N/A
9:52 am 09:52 Partly Cloudy 73 22.8 58 14.4 59 59 VRB 3 6 30.16 1021 10 16 N/A
10:52 am 10:52 Partly Cloudy 75 23.9 57 13.9 54 54 VRB 5 7 30.14 1021 10 16 N/A
11:52 am 11:52 Partly Cloudy 78 25.6 56 13.3 47 47 NW 5 7 30.14 1021 10 16 N/A
12:52 pm 12:52 Mostly Cloudy 80 26.7 51 10.6 37 37 N N/A 30.15 1021 10 16 N/A
1:52 pm 13:52 Mostly Cloudy 81 27.2 49 9.4 33 33 NNW 7 11 30.14 1021 10 16 N/A
2:52 pm 14:52 Mostly Cloudy 83 28.3 54 12.2 37 37 VRB 5 7 30.14 1021 10 16 N/A
3:52 pm 15:52 Mostly Cloudy 81 27.2 56 13.3 42 42 NNW 9 15 30.16 1021 10 16 N/A
4:52 pm 16:52 Mostly Cloudy 80 26.7 57 13.9 45 45 NNE 3 6 30.11 1020 10 16 N/A
5:52 pm 17:52 Partly Cloudy 83 28.3 57 13.9 41 41 NE 5 7 30.09 1019 10 16 N/A
6:52 pm 18:52 Partly Cloudy 82 27.8 55 12.8 40 40 N N/A 30.06 1018 10 16 N/A
7:52 pm 19:52 Mostly Cloudy 79 26.1 58 14.4 49 49 WNW 7 11 30.10 1019 10 16 N/A
8:52 pm 20:52 Cloudy 74 23.3 61 16.1 64 64 S 5 7 30.08 1019 10 16 N/A
9:52 pm 21:52 Mostly Cloudy 74 23.3 60 15.6 62 62 W 3 6 30.09 1019 10 16 N/A
10:52 pm 22:52 Partly Cloudy 69 20.6 62 16.7 78 78 N N/A 30.10 1019 10 16 N/A
11:52 pm 23:52 Partly Cloudy 69 20.6 59 15 70 70 W 6 9 30.09 1019 10 16 N/A

Powered by AerisWeather